Weather Roundup
Issued by NWS

Home | Current Version | Previous Version | Graphics & Text | Print | Product List | Glossary Off
Versions: 1 2 3 4 5 6 7 8 9 10 11 12 13 14 15 16 17 18 19 20 21 22 23 24 25 26 27 28 29 30 31 32 33 34 35 36 37 38 39 40 41 42 43 44 45 46 47 48 49 50

000
NZUS93 KARX 152059
HRRWXR

CURRENT HOURLY OBSERVATIONS ACROSS
MUCH OF THE UPPER MISSISSIPPI VALLEY
NATIONAL WEATHER SERVICE LA CROSSE WI
400 PM CDT MON SEP 15 2014


...SOUTHEAST MINNESOTA...


CITY           SKY/WX    TMP DP  RH WIND       PRES   REMARKS
ROCHESTER      FAIR      61  42  49 N10G16    30.19F
ROCHESTER/MAYO CLOUDY    58  38  47 W9        30.19S
WINONA         CLOUDY    59  46  63 NW6       30.17F
AUSTIN         PTSUNNY   57  43  58 N10       30.19F
ALBERT LEA     FAIR      61  39  44 NW7       30.20S
DODGE CENTER   PTSUNNY   57  43  58 N10       30.19F
PRESTON        PTSUNNY   58  49  72 N14       30.18F
OWATONNA       FAIR      61  41  48 NW10      30.20S
FARIBAULT      FAIR      63  37  39 NW7       30.21S
$$

...ELSEWHERE IN MINNESOTA...


CITY           SKY/WX    TMP DP  RH WIND       PRES   REMARKS
MINNEAPOLIS    FAIR      61  36  39 NW7       30.19F
INTNL FALLS    FAIR      60  35  39 W12G20    30.11F
DULUTH         FAIR      57  33  40 NW8       30.15F
RED WING       PTSUNNY   61  39  44 NW7       30.18S
REDWOOD FALLS  FAIR      62  37  39 NW9       30.21F
MANKATO        PTSUNNY   61  36  39 N6G16     30.21S
WORTHINGTON    FAIR      59  37  44 NW7       30.24F
FAIRMONT       FAIR      63  36  36 N13G18    30.22S
$$

...SOUTHWEST WISCONSIN...


CITY           SKY/WX    TMP DP  RH WIND       PRES   REMARKS
LA CROSSE      FAIR      62  48  60 W9        30.16F
PRAIRIE DU CHI FAIR      59  44  57 N10G18    30.16S
BOSCOBEL       PTSUNNY   59  46  62 N9        30.17S
LONE ROCK      PTSUNNY   62  46  55 N13       30.15S
PLATTEVILLE    CLOUDY    57  51  80 CALM      30.15S
FORT MC COY    PTSUNNY   60  46  59 NW8       30.16F
VIROQUA        FAIR      59  45  60 N10       30.16F
WIS DELLS      CLOUDY    55  46  71 NW10      30.14S
$$

...ELSEWHERE IN WISCONSIN...


CITY           SKY/WX    TMP DP  RH WIND       PRES   REMARKS
MILWAUKEE      CLOUDY    54  52  93 N7        30.11F
MADISON        PTSUNNY   58  49  72 N12       30.13F
GREEN BAY      PTSUNNY   58  50  75 SW6       30.11S
EAU CLAIRE     NOT AVBL
BLACK RVR FLS  FAIR      60  47  62 W5        30.15F
MEDFORD        FAIR      57  38  49 NW10      30.13F
WAUSAU         FAIR      58  41  53 NW9       30.10S
WIS RAPIDS     LGT RAIN  59  46  62 W7        30.13F
MARSHFIELD     CLOUDY    58  43  57 NW12      30.13S
RICE LAKE      CLOUDY    60  36  41 NW10      30.19S
$$

...NORTHEAST IOWA...


CITY           SKY/WX    TMP DP  RH WIND       PRES   REMARKS
WATERLOO       CLOUDY    59  45  59 N14G23    30.17S
DUBUQUE        PTSUNNY   56  52  86 N12       30.14F
DECORAH        PTSUNNY   59  45  58 N12       30.17S
MASON CITY     PTSUNNY   60  45  57 N8        30.21F
CHARLES CITY   CLOUDY    59  43  55 N10       30.19F
OELWEIN        PTSUNNY   57  46  67 N15G21    30.18S
$$

...ELSEWHERE IN IOWA...


CITY           SKY/WX    TMP DP  RH WIND       PRES   REMARKS
DES MOINES     PTSUNNY   62  47  57 N12       30.19R
IOWA CITY      CLOUDY    59  52  77 N18       30.14R
FORT DODGE     CLOUDY    57  45  62 N5        30.23S
MARSHALLTOWN   PTSUNNY   58  47  66 N14       30.18S
CEDAR RAPIDS   CLOUDY    58  50  75 N13       30.15R
$$

...NORTHERN ILLINOIS...


CITY           SKY/WX    TMP DP  RH WIND       PRES   REMARKS
CHICAGO-OHARE  LGT RAIN  60  51  72 NW9       30.09R
DUPAGE         CLOUDY    57  53  86 N7        30.09R FOG
CHICAGO-MIDWAY CLOUDY    59  53  80 W6        30.09S
MOLINE         CLOUDY    60  52  74 N15G25    30.09R
ROCKFORD       LGT RAIN  55  51  86 N15       30.14R
STERLING       CLOUDY    57  52  82 NE14      30.10R
PEORIA         LGT RAIN  59  56  89 NW5       30.07F FOG
$$

NOTE: "FAIR" INDICATES FEW OR NO CLOUDS BELOW 12,000 FEET WITH NO
SIGNIFICANT WEATHER AND/OR OBSTRUCTIONS TO VISIBILITY. WIND
SPEEDS ARE IN MILES-PER-HOUR.



USA.gov is the U.S. government's official web portal to all federal, state and local government web resources and services.